Location: Helsinki
(60.1699°N, 24.9384°E)
Time: 16:53:04
(UTC+02:00)

A-11 Canister half - Pass Details

Date: 01 November 2020
Orbit: 1525 x 1684 km, 47.3° (Epoch: 29 November)

Event Time Altitude Azimuth Distance (km) Brightness Sun altitude
Rises 16:56:44 0° 256° (WSW) 4,757 14.1 -4.7°
Reaches altitude 10° 17:00:06 10° 248° (WSW) 3,752 13.0 -5.1°
Maximum altitude 17:08:26 37° 186° (S) 2,223 10.1 -6.0°
Drops below altitude 10° 17:16:39 10° 124° (ESE) 3,692 10.6 -7.0°
Sets 17:19:56 0° 116° (ESE) 4,673 11.1 -7.4°
